Weather History for KPSP - November, 2014

Change the Weather History Date:

Tuesday, November 4, 2014

  Actual Average Record
Temperature  
Mean Temperature 71 °F 69 °F  
Max Temperature 82 °F 82 °F 97 °F (1931)
Min Temperature 59 °F 56 °F 35 °F (1956)
Degree Days  
Heating Degree Days 0 1  
Month to date heating degree days 7 4  
Since 1 July heating degree days 7 8  
Cooling Degree Days 6 5  
Month to date cooling degree days 6 22  
Year to date cooling degree days 4858 4084  
Growing Degree Days 21 (Base 50)    
Moisture  
Dew Point 11 °F    
Average Humidity 13    
Maximum Humidity 20    
Minimum Humidity 5    
Precipitation  
Precipitation 0.00 in 0.01 in 0.05 in (1925)
Month to date precipitation 0.00 0.05  
Year to date precipitation 1.94 4.38  
Since 1 July precipitation 1.19 1.44  
Snow  
Snow 0.00 in - - ()
Month to date snowfall 0.0  
Year to date snowfall 0.0  
Since 1 July snowfall 0.0  
Snow Depth 0.00 in    
Sea Level Pressure  
Sea Level Pressure 30.19 in    
Wind  
Wind Speed 8 mph (NW)    
Max Wind Speed 18 mph    
Max Gust Speed 24 mph    
Visibility 10 miles    
Events      
T = Trace of Precipitation, MM = Missing Value Source: NWS Daily Summary

Daily Weather History Graph

Daily Weather History Graph

Search for Another Location

Airport or City:

Trip Planner

Search our weather history database for the weather conditions in past years. The results will help you decide how hot, cold, wet, or windy it might be!

Date:

Astronomy

Nov. 04, 2014 Rise Set
Actual Time 6:08 AM PST 4:50 PM PST
Civil Twilight 5:42 AM PST 5:16 PM PST
Nautical Twilight 5:12 AM PST 5:46 PM PST
Astronomical Twilight 4:43 AM PST 6:15 PM PST
Moon 3:34 PM PST (11/4) 3:38 AM PST (11/4)
Length of Visible Light 11h 34m
Length of Day
10h 42m
Waxing Gibbous, 94% of the Moon is Illuminated
Nov 4
Waxing Gibbous
Nov 6
Full
Nov 14
Last Quarter
Nov 22
New
Nov 29
First Quarter

Hourly Weather History & Observations

Time (PST) Temp. Dew Point Humidity Pressure Visibility Wind Dir Wind Speed Gust Speed Precip Events Conditions
12:53 AM 66.9 °F 14.0 °F 13% 30.20 in 10.0 mi Variable 3.5 mph - N/A   Clear
1:53 AM 64.9 °F 16.0 °F 15% 30.20 in - West 5.8 mph - N/A   Clear
2:53 AM 68.0 °F 12.9 °F 12% 30.20 in - WNW 9.2 mph - N/A   Clear
3:53 AM 68.0 °F 12.9 °F 12% 30.20 in - WNW 8.1 mph - N/A   Clear
4:53 AM 66.0 °F 15.1 °F 14% 30.22 in - West 4.6 mph - N/A   Clear
5:53 AM 60.1 °F 19.0 °F 20% 30.24 in 10.0 mi SW 3.5 mph - N/A   Clear
6:53 AM 64.0 °F 18.0 °F 17% 30.26 in 10.0 mi Variable 4.6 mph - N/A   Clear
7:53 AM 69.1 °F 17.1 °F 14% 30.28 in 10.0 mi WNW 6.9 mph - N/A   Clear
8:53 AM 72.0 °F 12.9 °F 10% 30.27 in 10.0 mi NNW 8.1 mph - N/A   Clear
9:53 AM 73.9 °F 10.9 °F 9% 30.26 in 10.0 mi Calm Calm - N/A   Clear
10:53 AM 75.9 °F 8.1 °F 7% 30.24 in 10.0 mi North 8.1 mph - N/A   Clear
11:53 AM 77.0 °F 7.0 °F 7% 30.21 in 10.0 mi North 15.0 mph 21.9 mph N/A   Clear
12:53 PM 79.0 °F 6.1 °F 6% 30.17 in 10.0 mi North 11.5 mph - N/A   Clear
1:53 PM 81.0 °F 7.0 °F 6% 30.15 in 10.0 mi North 10.4 mph - N/A   Clear
2:53 PM 82.0 °F 5.0 °F 5% 30.13 in 10.0 mi NNW 18.4 mph - N/A   Clear
3:53 PM 81.0 °F 5.0 °F 5% 30.12 in 10.0 mi North 16.1 mph - N/A   Clear
4:53 PM 78.1 °F 3.9 °F 6% 30.12 in 10.0 mi NW 5.8 mph - N/A   Scattered Clouds
5:53 PM 73.0 °F 9.0 °F 8% 30.14 in 10.0 mi WSW 4.6 mph - N/A   Partly Cloudy
6:53 PM 75.0 °F 5.0 °F 7% 30.13 in 10.0 mi WNW 5.8 mph - N/A   Clear
7:53 PM 71.1 °F 10.9 °F 10% 30.14 in 10.0 mi West 5.8 mph - N/A   Clear
8:53 PM 66.0 °F 16.0 °F 15% 30.18 in 10.0 mi Calm Calm - N/A   Clear
9:53 PM 64.9 °F 10.9 °F 12% 30.17 in 10.0 mi West 4.6 mph - N/A   Clear
10:53 PM 62.1 °F 14.0 °F 15% 30.17 in 10.0 mi Calm Calm - N/A   Clear
11:53 PM 60.1 °F 15.1 °F 17% 30.16 in 10.0 mi WNW 3.5 mph - N/A   Clear